Frank Kameier
 << Strömugstechnik und Akustik  


FTP-Server - Bibliothek Strömungstechnik und Akustik (nur lesen)

[ICO]NameLast modifiedSizeDescription

[PARENTDIR]Parent Directory  -  
[   ]0_HDT_Ventilatoren_Excel_mit_Namen_11042012.xlsx2013-03-08 14:26 86K 
[   ]1_D_stromfadentheorie_exemplarische_auslegung_verluste040313.xlsx2013-03-08 14:26 384K 
[   ]1_HDT_Ventilatoren_dichte_differenzdruck060313.xlsx2013-03-08 14:26 15K 
[   ]2_HDT_Ventilatoren_isentrope_temperaturerhoehung_excel2010_060313.xlsx2013-03-08 14:26 11K 
[   ]3_HDT_Ventilatoren_kompressibel_inkompressibel_excel2010_060313_lösung.xlsx2013-03-08 14:26 35K 
[   ]4_HDT_Ventilatoren_Prognose_Lw_ueber_St_210214.xlsx2015-02-21 16:35 20K 
[   ]5_HDT_Ventilatoren_Re2320_excel2010_060313.xlsx2013-03-08 14:26 11K 
[   ]6_HDT_Ventilatoren_rohrströmungsprofile_excel2010_060313.xlsx2013-03-08 14:26 24K 
[   ]7_HDT_Ventilatoren_dichte_temperatur060313.xlsx2013-03-08 14:26 17K 
[   ]8_HDT_ventilatoren_feuchte_luft060313.xlsx2013-03-08 14:26 149K 
[   ]9_HDT_ventilatoren_Zaehigkeit_temp060313.xlsx2013-03-08 14:26 17K 
[   ]10_HDT_Auswertung_Radialverdichter_kompressibel270213.xls2013-03-08 14:26 231K 
[   ]11_HDT_Ventilatoren_auslegung mit cordier100313.xlsx2013-03-10 10:57 22K 
[   ]11_HDT_Ventilatoren_auslegung mit cordier270213.xlsx2013-03-08 14:26 22K 
[   ]12_HDT_Ventilatoren_exemplarische_auslegung_verluste180215.xlsx2015-02-18 19:24 384K 
[   ]13_HDT_Ventilatoren_kennliniendiagramm_180215.xlsx2015-02-18 19:24 1.4M 
[   ]14_HDT_Ventilatoren_Einstellugen Excel.docx2013-03-08 14:26 899K 
[   ]14_Laufrad_gehaeuse_dimensionierung_excel2003_beta_100313_nur_ein_vent_ohne_CAD.xls2015-02-21 16:39 1.6M 
[   ]15_HDT_Trocknungsofen_kalt_warm_Kennlinienhochrechnung_070313.xlsx2013-03-08 14:26 30K 
[VID]CAE_Radial.avi2013-03-08 14:27 164M 
[IMG]Dia1.gif2015-02-21 16:39 4.7K 
[IMG]Dia8.gif2015-02-21 16:39 2.5K 
[IMG]Dia9.gif2015-02-21 16:39 13K 
[   ]HDT2015_Teil_1_Was_ist_ein_Ventilator080215.pdf2015-02-18 19:26 1.2M 
[   ]HDT2015_Teil_2_Grundlagen_Stroemungsmechanik310115.pdf2015-02-18 19:26 2.0M 
[   ]HDT2015_Teil_3_Axialventilatoren_grundlagen080215.pdf2015-02-18 19:26 1.3M 
[   ]HDT2015_Teil_4_radialventilatoren_grundlagen210215.pdf2015-02-21 16:37 5.5M 
[   ]HDT2015_Teil_5_Radialventilatoren070215.pdf2015-02-18 19:26 2.3M 
[   ]HDT2015_Teil_6_Messtechnik und Prüfstände070215.pdf2015-02-18 19:26 2.1M 
[   ]HDT2015_Teil_7_Axialventilatoren_vertiefung080215.pdf2015-02-18 19:27 2.6M 
[   ]HDT2015_Teil_8_Druckverlustrechnung_Kennlinienhochrechnung080215.pdf2015-02-18 19:26 1.3M 
[   ]HDT2015_Teil_9_Akustik_grundlagen080215.pdf2015-02-18 19:27 1.5M 
[   ]HDT2015_Teil_10_festigkeit_radialventilatorlaufrad080215.pdf2015-02-18 19:25 954K 
[   ]HDT2015_Teil_11_Einbauhinweise080215.pdf2015-02-18 19:25 594K 
[   ]HDT2015_Teil_12_Schalldämpfer080215.pdf2015-02-18 19:25 2.0M 
[   ]HDT2015_Teil_13_akustische_aehnlichkeitsgesetze080215.pdf2015-02-18 19:25 900K 
[   ]Kennlinienhochrechnung_III_270213.xlsx2013-03-08 14:29 15K 
[   ]Kennlinienhochrechnung_II_270213.xlsx2013-03-08 14:29 13K 
[   ]Kennlinienhochrechnung_IV_070313.xlsx2013-03-08 14:29 18K 
[   ]Kennlinienhochrechnung_I_270213.xlsx2013-03-08 14:29 9.4K 
[   ]geschwindigkeitsdreieck301111.xlsx2013-03-08 14:27 9.9K